GW2881 Weather Reports


time (UTC)temp
C
wind
direction
speed
KPH
gust
KPH
rain 1hr
cm
rain 24hr
cm
rain mn
cm
humidity
%
barometer
mb
20260506081555 0 360 6.4 12.9 0.00 0.05 0.03 98 1007.1
20260506080106 0 360 0.0 3.2 0.00 0.05 0.03 98 1007.0
20260506073104 0 360 1.6 8.0 0.00 0.05 0.03 98 1006.8
20260506071600 0 360 0.0 6.4 0.00 0.05 0.03 98 1006.7
20260506061545 0 360 0.0 3.2 0.00 0.05 0.03 99 1006.3
20260506044551 -1 360 3.2 4.8 0.00 0.03 0.00 99 1005.7
20260506043052 -1 360 3.2 4.8 0.00 0.03 0.00 99 1005.6
20260506041559 -1 360 1.6 3.2 0.00 0.03 0.00 99 1005.6
20260506040042 -2 360 3.2 6.4 0.00 0.03 0.00 99 1005.4
20260506034557 -1 360 0.0 4.8 0.00 0.03 0.00 99 1005.3
20260506033114 -1 360 0.0 1.6 0.00 0.03 0.00 99 1005.2
20260506031546 -1 360 1.6 4.8 0.00 0.03 0.00 99 1005.1
20260506030059 -1 360 1.6 4.8 0.00 0.03 0.00 99 1005.0
20260506024615 -1 360 3.2 6.4 0.00 0.03 0.00 100 1004.9
20260506023106 -1 360 1.6 4.8 0.00 0.03 0.00 100 1004.8
20260506021556 -1 360 1.6 6.4 0.00 0.03 0.00 100 1004.7
20260506020048 -1 360 3.2 4.8 0.00 0.03 0.00 100 1004.6
20260506014543 -1 360 0.0 3.2 0.00 0.03 0.00 100 1004.5
20260506013047 -1 360 0.0 9.7 0.00 0.03 0.00 100 1004.4
20260506011621 -1 360 3.2 8.0 0.00 0.03 0.00 100 1004.3
20260506010120 -1 360 4.8 9.7 0.00 0.03 0.00 100 1004.2
20260506004549 -1 360 8.0 12.9 0.00 0.03 0.00 100 1004.2
20260506003049 -1 360 6.4 11.3 0.00 0.03 0.00 99 1004.1
20260506001601 -1 360 8.0 11.3 0.00 0.03 0.00 99 1004.1
20260506000051 -1 360 8.0 12.9 0.00 0.03 0.00 99 1004.0
20260505234553 -1 360 6.4 11.3 0.00 0.03 0.00 100 1003.9
20260505233054 -1 360 4.8 8.0 0.00 0.03 0.00 100 1003.8
20260505231549 -1 360 4.8 8.0 0.00 0.03 0.00 99 1003.8
20260505230052 -1 360 4.8 9.7 0.00 0.03 0.00 99 1003.7
20260505224558 -1 360 6.4 9.7 0.00 0.03 0.00 100 1003.7
20260505223042 -1 360 8.0 11.3 0.00 0.03 0.00 100 1003.7
20260505221603 -1 360 8.0 11.3 0.00 0.03 0.00 100 1003.6
20260505220106 -1 360 9.7 12.9 0.00 0.03 0.00 100 1003.5
20260505214551 -1 360 6.4 12.9 0.00 0.03 0.03 99 1003.5
20260505213045 -1 360 8.0 12.9 0.00 0.03 0.03 99 1003.5
20260505211555 -1 360 9.7 14.5 0.00 0.03 0.03 100 1003.5
20260505210057 -1 360 8.0 16.1 0.00 0.03 0.03 99 1003.4
20260505204603 -1 360 6.4 9.7 0.00 0.03 0.03 99 1003.3
20260505203106 -1 360 11.3 16.1 0.00 0.03 0.03 99 1003.2
20260505201547 -1 360 11.3 19.3 0.00 0.03 0.03 100 1003.2
20260505200050 -1 360 9.7 12.9 0.00 0.03 0.03 99 1003.2
20260505194603 -1 360 8.0 12.9 0.00 0.03 0.03 99 1003.0
20260505193058 -1 360 8.0 11.3 0.00 0.03 0.03 99 1003.0
20260505191550 -1 360 11.3 14.5 0.00 0.03 0.03 99 1003.0
20260505190055 -1 360 6.4 9.7 0.00 0.03 0.03 99 1003.0
20260505184504 -1 360 6.4 9.7 0.00 0.03 0.03 99 1002.9
20260505183005 -1 360 4.8 8.0 0.00 0.03 0.03 99 1002.8
20260505181552 -1 360 6.4 11.3 0.00 0.03 0.03 99 1002.7
20260505180058 -1 360 11.3 14.5 0.00 0.03 0.03 99 1002.6
20260505174547 -1 360 8.0 12.9 0.00 0.03 0.03 99 1002.6
20260505173051 0 360 9.7 12.9 0.00 0.03 0.03 99 1002.4
20260505171503 0 360 4.8 9.7 0.00 0.03 0.03 99 1002.3
20260505170000 0 360 9.7 14.5 0.00 0.03 0.03 99 1002.2
20260505164557 0 360 4.8 12.9 0.00 0.03 0.03 99 1002.2
20260505163049 0 360 6.4 12.9 0.00 0.03 0.03 99 1001.9
20260505161601 0 360 11.3 19.3 0.00 0.03 0.03 99 1001.8
20260505153110 0 360 17.7 24.1 0.00 0.03 0.03 97 1001.6
20260505151545 0 360 9.7 17.7 0.00 0.03 0.03 97 1001.5
20260505124502 0 360 6.4 11.3 0.03 0.03 0.03 92 1000.6
20260505123001 0 360 6.4 12.9 0.03 0.03 0.03 92 1000.6
20260505121550 0 360 11.3 19.3 0.03 0.03 0.03 95 1000.3
20260505120104 0 360 14.5 30.6 0.03 0.03 0.03 96 1000.3
20260505114546 0 360 24.1 29.0 0.00 0.00 0.00 89 1000.5
20260505113110 1 360 8.0 14.5 0.00 0.00 0.00 86 1000.0
20260505111546 0 360 6.4 16.1 0.00 0.00 0.00 90 999.8
20260505101600 0 360 14.5 24.1 0.00 0.00 0.00 90 999.5
20260505100055 0 360 14.5 20.9 0.00 0.00 0.00 87 999.3
20260505094501 0 360 14.5 22.5 0.00 0.03 0.00 86 999.2
20260505093105 0 360 16.1 20.9 0.00 0.03 0.00 89 999.1
20260505091502 0 360 19.3 25.7 0.00 0.03 0.00 88 999.4
20260505090058 0 360 14.5 22.5 0.00 0.03 0.00 88 999.0
20260505084551 0 360 14.5 19.3 0.00 0.03 0.00 91 998.9
20260505083002 0 360 9.7 17.7 0.00 0.03 0.00 93 998.8